Andrews, NC

11:41 PM EDT on August 25, 2019 (GMT -0400)
Andrews

Weather History for KRHP - July, 2019

Change the Weather History Date:

Monday, July 22, 2019

  Actual Average (KMMI) Record (KMMI)
Temperature  
Mean Temperature 76 °F -  
Max Temperature 83 °F 89 °F 95 °F (2017)
Min Temperature 68 °F 66 °F 66 °F (2014)
Cooling Degree Days 10    
Growing Degree Days 26 (Base 50)    
Moisture  
Dew Point 71 °F    
Average Humidity 93    
Maximum Humidity 100    
Minimum Humidity 69    
Precipitation  
Precipitation 0.28 in - - ()
Sea Level Pressure  
Sea Level Pressure 30.04 in    
Wind  
Wind Speed 1 mph (SSW)    
Max Wind Speed 9 mph    
Max Gust Speed 16 mph    
Visibility 9 miles    
Events Rain    
Averages and records for this station are not official NWS values.
T = Trace of Precipitation, MM = Missing Value Source: NWS Daily Summary

Daily Weather History Graph

Daily Weather History Graph

Search for Another Location

Airport or City:

Astronomy

Jul. 22, 2019 Rise Set
Actual Time 6:36 AM EDT 8:46 PM EDT
Civil Twilight 6:08 AM EDT 9:15 PM EDT
Nautical Twilight 5:33 AM EDT 9:49 PM EDT
Astronomical Twilight 4:55 AM EDT 10:27 PM EDT
Moon No Moon Rise 11:42 AM EDT (7/22)
Length of Visible Light 15h 06m
Length of Day
14h 09m
Waning Gibbous, 72% of the Moon is Illuminated
Jul 22
Waning Gibbous
Jul 24
Last Quarter
Jul 31
New
Aug 7
First Quarter
Aug 15
Full

Hourly Weather History & Observations

Time (EDT) Temp. Heat Index Dew Point Humidity Pressure Visibility Wind Dir Wind Speed Gust Speed Precip Events Conditions
12:00 AM 70.9 °F - 70.9 °F 100% 30.08 in 7.0 mi Calm Calm - N/A   Overcast
12:20 AM 70.7 °F - 70.7 °F 100% 30.08 in 7.0 mi Calm Calm - N/A   Overcast
12:40 AM 70.9 °F - 70.9 °F 100% 30.08 in 10.0 mi Calm Calm - N/A   Overcast
1:00 AM 70.5 °F - 70.5 °F 100% 30.08 in 7.0 mi Calm Calm - N/A   Mostly Cloudy
1:20 AM 70.7 °F - 70.7 °F 100% 30.08 in 10.0 mi Calm Calm - N/A   Overcast
1:40 AM 70.7 °F - 70.7 °F 100% 30.08 in 7.0 mi Calm Calm - N/A   Overcast
2:00 AM 70.7 °F - 70.7 °F 100% 30.07 in 7.0 mi Calm Calm - N/A   Overcast
2:20 AM 70.3 °F - 70.3 °F 100% 30.06 in 7.0 mi Calm Calm - N/A   Overcast
2:40 AM 70.7 °F - 70.7 °F 100% 30.06 in 10.0 mi Calm Calm - N/A   Overcast
3:00 AM 70.7 °F - 70.7 °F 100% 30.06 in 7.0 mi Calm Calm - N/A   Overcast
3:20 AM 70.5 °F - 70.5 °F 100% 30.06 in 5.0 mi Calm Calm - N/A   Overcast
3:40 AM 70.7 °F - 70.7 °F 100% 30.06 in 7.0 mi Calm Calm - N/A   Overcast
4:00 AM 70.7 °F - 70.7 °F 100% 30.05 in 7.0 mi Calm Calm - N/A   Overcast
4:20 AM 70.3 °F - 70.3 °F 100% 30.05 in 5.0 mi Calm Calm - N/A   Overcast
4:40 AM 70.3 °F - 70.3 °F 100% 30.05 in 7.0 mi Calm Calm - N/A   Overcast
5:00 AM 70.7 °F - 70.7 °F 100% 30.04 in 7.0 mi Calm Calm - N/A   Overcast
5:20 AM 70.2 °F - 70.2 °F 100% 30.04 in 7.0 mi Calm Calm - N/A   Mostly Cloudy
5:40 AM 69.8 °F - 69.8 °F 100% 30.04 in 10.0 mi Calm Calm - N/A   Mostly Cloudy
6:00 AM 69.8 °F - 69.8 °F 100% 30.04 in 10.0 mi Calm Calm - N/A   Mostly Cloudy
6:20 AM 68.9 °F - 68.9 °F 100% 30.05 in 10.0 mi Calm Calm - N/A   Scattered Clouds
6:40 AM 68.9 °F - 68.9 °F 100% 30.06 in 7.0 mi Calm Calm - N/A   Mostly Cloudy
7:00 AM 68.9 °F - 68.9 °F 100% 30.06 in 7.0 mi Calm Calm - N/A   Mostly Cloudy
7:20 AM 69.3 °F - 69.3 °F 100% 30.06 in 5.0 mi Calm Calm - N/A   Mostly Cloudy
7:40 AM 69.8 °F - 69.8 °F 100% 30.07 in 2.5 mi Calm Calm - N/A   Overcast
8:00 AM 70.0 °F - 70.0 °F 100% 30.08 in 5.0 mi Calm Calm - N/A   Overcast
8:20 AM 70.3 °F - 70.3 °F 100% 30.08 in 10.0 mi Calm Calm - N/A   Overcast
8:40 AM 71.6 °F - 71.6 °F 100% 30.08 in 10.0 mi Calm Calm - N/A   Mostly Cloudy
9:00 AM 72.9 °F - 71.6 °F 96% 30.08 in 10.0 mi Calm Calm - N/A   Scattered Clouds
9:20 AM 73.8 °F - 72.5 °F 96% 30.08 in 10.0 mi Calm Calm - N/A   Scattered Clouds
9:40 AM 74.3 °F - 72.0 °F 92% 30.08 in 10.0 mi Calm Calm - N/A   Mostly Cloudy
10:00 AM 74.5 °F - 72.1 °F 92% 30.08 in 10.0 mi Calm Calm - N/A   Overcast
10:20 AM 76.1 °F - 72.7 °F 89% 30.07 in 10.0 mi Calm Calm - N/A   Overcast
10:40 AM 78.6 °F - 72.5 °F 81% 30.06 in 10.0 mi Calm Calm - N/A   Mostly Cloudy
11:00 AM 80.2 °F 84.3 °F 72.3 °F 77% 30.06 in 10.0 mi WSW 4.6 mph - N/A   Mostly Cloudy
11:20 AM 81.9 °F 86.6 °F 72.1 °F 72% 30.05 in 10.0 mi WSW 3.5 mph - N/A   Overcast
11:40 AM 79.9 °F - 70.7 °F 73% 30.05 in 10.0 mi SW 8.1 mph - N/A   Overcast
12:00 PM 72.9 °F - 71.1 °F 94% 30.06 in 4.0 mi Calm Calm - N/A Rain Rain
12:20 PM 71.8 °F - 71.8 °F 100% 30.08 in 3.0 mi SSW 5.8 mph - 0.08 in Rain Rain
12:40 PM 71.2 °F - 71.2 °F 100% 30.08 in 5.0 mi Calm Calm - 0.13 in Rain Rain
1:00 PM 71.6 °F - 71.6 °F 100% 30.07 in 10.0 mi Calm Calm - N/A Rain Light Rain
1:20 PM 72.5 °F - 72.3 °F 99% 30.07 in 10.0 mi Calm Calm - N/A   Mostly Cloudy
1:40 PM 74.1 °F - 72.1 °F 94% 30.06 in 10.0 mi ENE 3.5 mph - N/A   Mostly Cloudy
2:00 PM 76.3 °F - 71.6 °F 85% 30.05 in 10.0 mi NE 3.5 mph - N/A   Scattered Clouds
2:20 PM 76.5 °F - 71.2 °F 84% 30.04 in 10.0 mi Calm Calm - N/A   Scattered Clouds
2:40 PM 77.4 °F - 71.4 °F 82% 30.03 in 10.0 mi Calm Calm - N/A   Scattered Clouds
3:00 PM 77.7 °F - 71.6 °F 81% 30.02 in 10.0 mi Calm Calm - N/A   Mostly Cloudy
3:20 PM 76.8 °F - 72.7 °F 87% 30.01 in 10.0 mi East 5.8 mph - N/A   Overcast
3:40 PM 75.9 °F - 73.4 °F 92% 30.01 in 3.0 mi East 3.5 mph - 0.03 in Rain Light Rain
4:00 PM 77.5 °F - 73.9 °F 89% 30.00 in 10.0 mi NE 3.5 mph - N/A   Overcast
4:20 PM 79.3 °F - 73.6 °F 82% 29.99 in 10.0 mi NNE 3.5 mph - N/A   Mostly Cloudy
4:40 PM 82.0 °F 87.9 °F 73.9 °F 76% 29.98 in 10.0 mi Calm Calm - N/A   Scattered Clouds
5:00 PM 83.1 °F 88.4 °F 72.0 °F 69% 29.98 in 10.0 mi SW 9.2 mph - N/A   Scattered Clouds
5:20 PM 82.4 °F 87.2 °F 71.8 °F 70% 29.98 in 10.0 mi SW 6.9 mph - N/A   Mostly Cloudy
5:40 PM 80.2 °F 83.9 °F 71.4 °F 74% 29.97 in 10.0 mi SW 5.8 mph - N/A   Overcast
6:00 PM 80.1 °F 84.0 °F 72.3 °F 77% 29.97 in 10.0 mi Calm Calm - N/A   Overcast
6:20 PM 78.6 °F - 73.0 °F 83% 29.97 in 10.0 mi Calm Calm - N/A   Overcast
6:40 PM 76.1 °F - 67.3 °F 74% 29.98 in 10.0 mi South 5.8 mph 16.1 mph N/A   Overcast
7:00 PM 76.1 °F - 68.0 °F 76% 29.98 in 10.0 mi Calm Calm - N/A   Mostly Cloudy
7:20 PM 74.8 °F - 69.1 °F 82% 29.98 in 10.0 mi Calm Calm - N/A   Overcast
7:40 PM 73.8 °F - 70.7 °F 90% 29.99 in 10.0 mi Calm Calm - N/A   Mostly Cloudy
8:00 PM 73.4 °F - 70.5 °F 91% 29.99 in 10.0 mi Calm Calm - N/A   Overcast
8:20 PM 72.5 °F - 72.0 °F 98% 29.98 in 10.0 mi Calm Calm - N/A   Mostly Cloudy
8:40 PM 72.0 °F - 72.0 °F 100% 29.99 in 10.0 mi Calm Calm - N/A   Mostly Cloudy
9:00 PM 71.2 °F - 71.2 °F 100% 29.99 in 10.0 mi Calm Calm - N/A   Overcast
9:20 PM 70.7 °F - 70.7 °F 100% 29.99 in 10.0 mi Calm Calm - N/A   Mostly Cloudy
9:40 PM 70.7 °F - 70.7 °F 100% 30.00 in 1.2 mi South 3.5 mph - 0.12 in Rain Rain
10:00 PM 70.9 °F - 70.9 °F 100% 30.00 in 10.0 mi NNW 3.5 mph - N/A Rain Light Rain
10:20 PM 70.7 °F - 70.7 °F 100% 29.99 in 10.0 mi Calm Calm - N/A   Overcast
10:40 PM 70.3 °F - 70.3 °F 100% 29.99 in 10.0 mi Calm Calm - N/A   Overcast
11:00 PM 70.2 °F - 70.2 °F 100% 30.00 in 10.0 mi Calm Calm - N/A   Overcast
11:20 PM 70.3 °F - 70.3 °F 100% 29.99 in 10.0 mi Calm Calm - N/A   Overcast
11:40 PM 70.2 °F - 70.2 °F 100% 29.99 in 10.0 mi Calm Calm - N/A   Overcast